This is the latest recevied weather packets stored in our database for station/object KV9E. If no packets are shown the sender has not sent any weather packets the latest 10 day(s).
| Time | Temp. | Humidity | Pressure | Rain* | Wind** | Luminosity | Snow |
|---|---|---|---|---|---|---|---|
| 1778332679 | 12.78° C | 92% | 1010.8 hPa | 0 mm | - | 90 W/m² | - |
| 1778332376 | 12.78° C | 91% | 1010.7 hPa | 0 mm | - | 95 W/m² | - |
| 1778332072 | 12.78° C | 91% | 1010.7 hPa | 0 mm | - | 93 W/m² | - |
| 1778331768 | 12.78° C | 91% | 1010.6 hPa | 0 mm | - | 87 W/m² | - |
| 1778331464 | 12.78° C | 91% | 1010.6 hPa | 0 mm | - | 82 W/m² | - |
| 1778331162 | 12.22° C | 91% | 1010.8 hPa | 0 mm | - | 85 W/m² | - |
| 1778330858 | 12.22° C | 91% | 1010.6 hPa | 0 mm | - | 77 W/m² | - |
| 1778330554 | 12.22° C | 92% | 1010.6 hPa | 0 mm | - | 58 W/m² | - |
| 1778330253 | 12.22° C | 92% | 1010.5 hPa | 0 mm | - | 52 W/m² | - |
| 1778329950 | 11.67° C | 92% | 1010.5 hPa | 0 mm | - | 37 W/m² | - |
| 1778329645 | 11.67° C | 92% | 1010.5 hPa | 0 mm | - | 31 W/m² | - |
| 1778329342 | 11.67° C | 92% | 1010.3 hPa | 0 mm | - | 32 W/m² | - |
| 1778329039 | 11.67° C | 92% | 1010.1 hPa | 0 mm | - | 33 W/m² | - |
| 1778328737 | 11.67° C | 92% | 1010.2 hPa | 0 mm | - | 30 W/m² | - |
| 1778328435 | 11.11° C | 92% | 1010.2 hPa | 0 mm | - | 28 W/m² | - |
| 1778328132 | 11.11° C | 92% | 1010 hPa | 0 mm | - | 25 W/m² | - |
| 1778327830 | 11.11° C | 92% | 1010 hPa | 0 mm | - | 23 W/m² | - |
| 1778327527 | 11.11° C | 91% | 1010.2 hPa | 0 mm | - | 22 W/m² | - |
| 1778327225 | 11.11° C | 91% | 1010 hPa | 0 mm | - | 21 W/m² | - |
| 1778326924 | 11.11° C | 90% | 1010 hPa | 0 mm | - | 22 W/m² | - |
| 1778326622 | 11.11° C | 90% | 1009.9 hPa | 0 mm | - | 21 W/m² | - |
| 1778326319 | 11.11° C | 89% | 1009.9 hPa | 0 mm | - | 21 W/m² | - |
| 1778326015 | 11.11° C | 89% | 1010.3 hPa | 0 mm | - | 21 W/m² | - |
| 1778325712 | 11.11° C | 89% | 1010.6 hPa | 0 mm | - | 22 W/m² | - |
| 1778325409 | 10.56° C | 88% | 1010.1 hPa | 0 mm | - | 18 W/m² | - |
* Rain latest hour (hover to see other rain measurements)
** Current wind speed in m/s (hover to see current wind gust speed)